Regional Weather Roundup
Issued by NWS

Home | Current Version | Previous Version | Graphics & Text | Print | Product List | Glossary On
Versions: 1 2 3 4 5 6 7 8 9 10 11 12 13 14 15 16 17 18 19 20 21 22 23 24 25 26 27 28 29 30 31 32 33 34 35 36 37 38 39 40 41 42 43 44 45 46 47 48 49 50
000
ASUS43 KLMK 251110
RWRKY
KENTUCKY REGIONAL WEATHER ROUNDUP
NATIONAL WEATHER SERVICE LOUISVILLE KY
700 AM EDT FRI JUL 25 2014

NOTE "FAIR" INDICATES FEW OR NO CLOUDS BELOW 12,000 FEET
WITH NO SIGNIFICANT WEATHER AND/OR OBSTRUCTIONS TO VISIBILITY.

KYZ001>023-026-027-061>063-070>075-251200-
WESTERN AND SOUTH CENTRAL KENTUCKY

CITY           SKY/WX    TMP DP  RH WIND       PRES   REMARKS
PADUCAH        FOG       58  56  93 CALM      30.04F VSB 1/4
HENDERSON      CLEAR     52  50  93 CALM      30.07R
OWENSBORO      CLEAR     56  52  86 CALM      30.07F
HOPKINSVILLE   CLEAR     57  57 100 E2        30.06S
BOWLING GREEN  CLEAR     54  52  93 CALM      30.08R
GLASGOW        CLEAR     55  55  99 CALM      30.08R
$$

KYZ024-025-028>034-038-045-046-053-251200-
NORTH CENTRAL KENTUCKY

CITY           SKY/WX    TMP DP  RH WIND       PRES   REMARKS
LOUISVILLE/SDF PTCLDY    61  56  83 N3        30.09R
LOUISVILLE/LOU CLEAR     59  55  87 CALM      30.10R
FORT KNOX      CLEAR     54  53  97 N5        30.08R
$$

KYZ035>037-039>044-047>052-055>060-089>105-251200-
NORTHEAST KENTUCKY

CITY           SKY/WX    TMP DP  RH WIND       PRES   REMARKS
LEXINGTON      CLEAR     58  53  84 CALM      30.09S
COVINGTON      PTCLDY    59  52  77 CALM      30.10R
FRANKFORT      CLEAR     55  53  93 N3        30.09R
$$

KYZ054-064>069-076>088-106>120-251200-
SOUTHEAST KENTUCKY

CITY           SKY/WX    TMP DP  RH WIND       PRES   REMARKS
JACKSON        FOG       59  58  96 CALM      30.10R VSB<1/4
LONDON         FOG       61  59  93 CALM      30.09R VSB<1/4
SOMERSET       FOG       59  59 100 CALM      30.09S VSB<1/4
MIDDLESBORO    CLOUDY    62  60  94 NW3       30.10R
MONTICELLO     FOG       60  60 100 CALM      30.10R VSB<1/4
$$



USA.gov is the U.S. government's official web portal to all federal, state and local government web resources and services.